Time,TemperatureF,DewpointF,PressureIn,WindDirection,WindDirectionDegrees,WindSpeedMPH,WindSpeedGustMPH,Humidity,HourlyPrecipIn,Conditions,Clouds,dailyrainin,SoftwareType,DateUTC
2013-01-18 00:03:00,4.4,0.6,30.98,NW,305,0.0,1.0,84,0.00,,,0.00,Wunderground v.1.15,2013-01-18 07:03:00,
2013-01-18 00:08:00,4.4,0.6,30.97,NW,305,1.0,1.0,84,0.00,,,0.00,Wunderground v.1.15,2013-01-18 07:08:00,
2013-01-18 00:14:00,4.7,0.9,30.97,NW,304,1.0,1.0,84,0.00,,,0.00,Wunderground v.1.15,2013-01-18 07:14:00,
2013-01-18 00:19:00,5.6,1.8,30.96,NW,305,0.0,1.0,84,0.00,,,0.00,Wunderground v.1.15,2013-01-18 07:19:00,
2013-01-18 00:25:00,6.3,2.5,30.96,NW,305,0.0,1.0,84,0.00,,,0.00,Wunderground v.1.15,2013-01-18 07:25:00,
2013-01-18 00:30:00,6.9,3.3,30.96,NW,305,0.0,0.0,85,0.00,,,0.00,Wunderground v.1.15,2013-01-18 07:30:00,
2013-01-18 00:35:00,7.6,4.0,30.96,NW,305,0.0,0.0,85,0.00,,,0.00,Wunderground v.1.15,2013-01-18 07:35:00,
2013-01-18 00:41:00,8.6,5.0,30.96,NW,305,0.0,0.0,85,0.00,,,0.00,Wunderground v.1.15,2013-01-18 07:41:00,
2013-01-18 00:46:00,9.2,5.9,30.96,NW,305,0.0,0.0,86,0.00,,,0.00,Wunderground v.1.15,2013-01-18 07:46:00,
2013-01-18 00:52:00,7.6,3.8,30.96,NW,305,0.0,0.0,84,0.00,,,0.00,Wunderground v.1.15,2013-01-18 07:52:00,
2013-01-18 00:57:00,5.1,1.1,30.96,NW,305,0.0,0.0,83,0.00,,,0.00,Wunderground v.1.15,2013-01-18 07:57:00,
2013-01-18 01:02:00,3.2,-1.1,30.96,NW,305,0.0,0.0,82,0.00,,,0.00,Wunderground v.1.15,2013-01-18 08:02:00,
2013-01-18 01:08:00,2.6,-1.6,30.95,NW,305,0.0,0.0,82,0.00,,,0.00,Wunderground v.1.15,2013-01-18 08:08:00,
2013-01-18 01:13:00,2.6,-1.4,30.95,NW,305,0.0,0.0,83,0.00,,,0.00,Wunderground v.1.15,2013-01-18 08:13:00,
2013-01-18 01:19:00,2.4,-1.6,30.96,NW,304,0.0,0.0,83,0.00,,,0.00,Wunderground v.1.15,2013-01-18 08:19:00,
2013-01-18 01:24:00,2.0,-2.0,30.96,NW,304,0.0,0.0,83,0.00,,,0.00,Wunderground v.1.15,2013-01-18 08:24:00,
2013-01-18 01:30:00,1.7,-2.3,30.96,NW,305,0.0,0.0,83,0.00,,,0.00,Wunderground v.1.15,2013-01-18 08:30:00,
2013-01-18 01:35:00,1.2,-3.0,30.95,NW,304,0.0,0.0,82,0.00,,,0.00,Wunderground v.1.15,2013-01-18 08:35:00,
2013-01-18 01:41:00,1.1,-3.1,30.95,NW,304,0.0,0.0,82,0.00,,,0.00,Wunderground v.1.15,2013-01-18 08:41:00,
2013-01-18 01:46:00,1.6,-2.4,30.95,NW,305,0.0,0.0,83,0.00,,,0.00,Wunderground v.1.15,2013-01-18 08:46:00,
2013-01-18 01:51:00,2.0,-2.0,30.95,NW,305,0.0,0.0,83,0.00,,,0.00,Wunderground v.1.15,2013-01-18 08:51:00,
2013-01-18 01:57:00,2.3,-1.7,30.95,NW,304,0.0,0.0,83,0.00,,,0.00,Wunderground v.1.15,2013-01-18 08:57:00,
2013-01-18 02:02:00,3.1,-0.6,30.95,NW,305,0.0,0.0,84,0.00,,,0.00,Wunderground v.1.15,2013-01-18 09:02:00,
2013-01-18 02:07:00,3.0,-1.0,30.95,NW,304,0.0,0.0,83,0.00,,,0.00,Wunderground v.1.15,2013-01-18 09:07:00,
2013-01-18 02:12:00,2.2,-1.8,30.95,NW,305,0.0,0.0,83,0.00,,,0.00,Wunderground v.1.15,2013-01-18 09:12:00,
2013-01-18 02:17:00,1.6,-2.4,30.95,NW,304,0.0,0.0,83,0.00,,,0.00,Wunderground v.1.15,2013-01-18 09:17:00,
2013-01-18 02:22:00,1.0,-3.2,30.94,NW,304,0.0,0.0,82,0.00,,,0.00,Wunderground v.1.15,2013-01-18 09:22:00,
2013-01-18 02:27:00,0.4,-3.8,30.94,NW,304,0.0,0.0,82,0.00,,,0.00,Wunderground v.1.15,2013-01-18 09:27:00,
2013-01-18 02:32:00,-0.4,-4.8,30.94,NW,305,0.0,0.0,81,0.00,,,0.00,Wunderground v.1.15,2013-01-18 09:32:00,
2013-01-18 02:37:00,-1.0,-5.4,30.94,NW,305,0.0,0.0,81,0.00,,,0.00,Wunderground v.1.15,2013-01-18 09:37:00,
2013-01-18 02:42:00,-1.4,-5.8,30.94,NW,304,2.0,3.0,81,0.00,,,0.00,Wunderground v.1.15,2013-01-18 09:42:00,
2013-01-18 02:47:00,-1.2,-5.4,30.94,NW,304,4.0,4.0,82,0.00,,,0.00,Wunderground v.1.15,2013-01-18 09:47:00,
2013-01-18 02:52:00,-0.6,-4.8,30.94,NW,304,2.0,4.0,82,0.00,,,0.00,Wunderground v.1.15,2013-01-18 09:52:00,
2013-01-18 02:57:00,0.1,-4.1,30.94,NW,304,3.0,4.0,82,0.00,,,0.00,Wunderground v.1.15,2013-01-18 09:57:00,
2013-01-18 03:02:00,-0.1,-4.3,30.94,NW,305,3.0,4.0,82,0.00,,,0.00,Wunderground v.1.15,2013-01-18 10:02:00,
2013-01-18 03:08:00,0.0,-3.9,30.94,NW,305,1.0,4.0,83,0.00,,,0.00,Wunderground v.1.15,2013-01-18 10:08:00,
2013-01-18 03:13:00,0.3,-3.9,30.94,NW,304,3.0,4.0,82,0.00,,,0.00,Wunderground v.1.15,2013-01-18 10:13:00,
2013-01-18 03:18:00,0.6,-3.3,30.94,NW,305,3.0,4.0,83,0.00,,,0.00,Wunderground v.1.15,2013-01-18 10:18:00,
2013-01-18 03:23:00,1.1,-2.9,30.93,NW,305,3.0,3.0,83,0.00,,,0.00,Wunderground v.1.15,2013-01-18 10:23:00,
2013-01-18 03:28:00,0.0,-4.2,30.93,NW,304,1.0,4.0,82,0.00,,,0.00,Wunderground v.1.15,2013-01-18 10:28:00,
2013-01-18 03:33:00,-1.7,-6.1,30.93,NW,304,0.0,2.0,81,0.00,,,0.00,Wunderground v.1.15,2013-01-18 10:33:00,
2013-01-18 03:38:00,-2.4,-6.8,30.93,NW,305,0.0,2.0,81,0.00,,,0.00,Wunderground v.1.15,2013-01-18 10:38:00,
2013-01-18 03:43:00,-2.6,-7.0,30.93,NW,305,0.0,1.0,81,0.00,,,0.00,Wunderground v.1.15,2013-01-18 10:43:00,
2013-01-18 03:48:00,-3.2,-7.6,30.93,NW,305,0.0,1.0,81,0.00,,,0.00,Wunderground v.1.15,2013-01-18 10:48:00,
2013-01-18 03:53:00,-4.8,-9.4,30.93,NW,304,0.0,0.0,80,0.00,,,0.00,Wunderground v.1.15,2013-01-18 10:53:00,
2013-01-18 03:58:00,-5.8,-10.4,30.92,NW,305,0.0,0.0,80,0.00,,,0.00,Wunderground v.1.15,2013-01-18 10:58:00,
2013-01-18 04:03:00,-5.2,-9.5,30.92,NW,305,0.0,0.0,81,0.00,,,0.00,Wunderground v.1.15,2013-01-18 11:03:00,
2013-01-18 04:08:00,-2.9,-7.0,30.92,NW,304,1.0,3.0,82,0.00,,,0.00,Wunderground v.1.15,2013-01-18 11:08:00,
2013-01-18 04:13:00,-0.9,-4.8,30.92,NW,305,2.0,3.0,83,0.00,,,0.00,Wunderground v.1.15,2013-01-18 11:13:00,
2013-01-18 04:18:00,-0.1,-4.0,30.92,NW,305,2.0,3.0,83,0.00,,,0.00,Wunderground v.1.15,2013-01-18 11:18:00,
2013-01-18 04:23:00,1.1,-2.9,30.92,NW,304,1.0,3.0,83,0.00,,,0.00,Wunderground v.1.15,2013-01-18 11:23:00,
2013-01-18 04:28:00,1.8,-1.9,30.91,NW,304,0.0,3.0,84,0.00,,,0.00,Wunderground v.1.15,2013-01-18 11:28:00,
2013-01-18 04:34:00,0.3,-3.9,30.91,NW,305,0.0,1.0,82,0.00,,,0.00,Wunderground v.1.15,2013-01-18 11:34:00,
2013-01-18 04:39:00,-1.1,-5.3,30.91,NW,305,0.0,1.0,82,0.00,,,0.00,Wunderground v.1.15,2013-01-18 11:39:00,
2013-01-18 04:44:00,-1.8,-6.2,30.92,NW,305,0.0,0.0,81,0.00,,,0.00,Wunderground v.1.15,2013-01-18 11:44:00,
2013-01-18 04:49:00,-2.4,-6.8,30.92,NW,304,0.0,0.0,81,0.00,,,0.00,Wunderground v.1.15,2013-01-18 11:49:00,
2013-01-18 04:54:00,-1.8,-6.0,30.92,NW,305,0.0,0.0,82,0.00,,,0.00,Wunderground v.1.15,2013-01-18 11:54:00,
2013-01-18 04:59:00,-2.1,-6.5,30.92,NW,305,0.0,0.0,81,0.00,,,0.00,Wunderground v.1.15,2013-01-18 11:59:00,
2013-01-18 05:04:00,-2.8,-7.2,30.92,NW,304,0.0,0.0,81,0.00,,,0.00,Wunderground v.1.15,2013-01-18 12:04:00,
2013-01-18 05:09:00,-3.2,-7.6,30.92,NW,305,0.0,0.0,81,0.00,,,0.00,Wunderground v.1.15,2013-01-18 12:09:00,
2013-01-18 05:14:00,-3.3,-7.7,30.92,NW,305,0.0,0.0,81,0.00,,,0.00,Wunderground v.1.15,2013-01-18 12:14:00,
2013-01-18 05:19:00,-2.7,-7.1,30.92,NW,305,0.0,0.0,81,0.00,,,0.00,Wunderground v.1.15,2013-01-18 12:19:00,
2013-01-18 05:24:00,-2.0,-6.1,30.92,NW,304,0.0,0.0,82,0.00,,,0.00,Wunderground v.1.15,2013-01-18 12:24:00,
2013-01-18 05:29:00,-2.8,-7.2,30.92,NW,304,0.0,0.0,81,0.00,,,0.00,Wunderground v.1.15,2013-01-18 12:29:00,
2013-01-18 05:34:00,-3.7,-8.1,30.92,NW,305,0.0,0.0,81,0.00,,,0.00,Wunderground v.1.15,2013-01-18 12:34:00,
2013-01-18 05:39:00,-2.7,-6.8,30.92,NW,305,0.0,0.0,82,0.00,,,0.00,Wunderground v.1.15,2013-01-18 12:39:00,
2013-01-18 05:44:00,-2.2,-6.3,30.92,NW,305,0.0,0.0,82,0.00,,,0.00,Wunderground v.1.15,2013-01-18 12:44:00,
2013-01-18 05:49:00,-2.7,-7.1,30.92,NW,304,0.0,0.0,81,0.00,,,0.00,Wunderground v.1.15,2013-01-18 12:49:00,
2013-01-18 05:54:00,-2.7,-7.1,30.92,NW,304,0.0,0.0,81,0.00,,,0.00,Wunderground v.1.15,2013-01-18 12:54:00,
2013-01-18 06:00:00,-2.4,-6.5,30.92,NW,304,0.0,0.0,82,0.00,,,0.00,Wunderground v.1.15,2013-01-18 13:00:00,
2013-01-18 06:05:00,-2.2,-6.3,30.92,NW,305,0.0,0.0,82,0.00,,,0.00,Wunderground v.1.15,2013-01-18 13:05:00,
2013-01-18 06:10:00,-2.5,-6.9,30.92,NW,304,0.0,0.0,81,0.00,,,0.00,Wunderground v.1.15,2013-01-18 13:10:00,
2013-01-18 06:15:00,-3.4,-7.8,30.92,NW,304,0.0,0.0,81,0.00,,,0.00,Wunderground v.1.15,2013-01-18 13:15:00,
2013-01-18 06:20:00,-4.0,-8.4,30.92,NW,304,0.0,0.0,81,0.00,,,0.00,Wunderground v.1.15,2013-01-18 13:20:00,
2013-01-18 06:25:00,-4.0,-8.4,30.92,NW,305,0.0,0.0,81,0.00,,,0.00,Wunderground v.1.15,2013-01-18 13:25:00,
2013-01-18 06:30:00,-3.0,-7.1,30.93,NW,305,0.0,0.0,82,0.00,,,0.00,Wunderground v.1.15,2013-01-18 13:30:00,
2013-01-18 06:35:00,-3.6,-8.0,30.93,NW,305,0.0,0.0,81,0.00,,,0.00,Wunderground v.1.15,2013-01-18 13:35:00,
2013-01-18 06:40:00,-3.9,-8.3,30.93,NW,304,0.0,0.0,81,0.00,,,0.00,Wunderground v.1.15,2013-01-18 13:40:00,
2013-01-18 06:45:00,-3.3,-7.7,30.94,NW,304,0.0,0.0,81,0.00,,,0.00,Wunderground v.1.15,2013-01-18 13:45:00,
2013-01-18 06:50:00,-1.9,-6.1,30.94,NW,305,0.0,0.0,82,0.00,,,0.00,Wunderground v.1.15,2013-01-18 13:50:00,
2013-01-18 06:55:00,0.2,-3.7,30.93,NW,304,0.0,0.0,83,0.00,,,0.00,Wunderground v.1.15,2013-01-18 13:55:00,
2013-01-18 07:00:00,-0.3,-4.5,30.93,NW,305,0.0,0.0,82,0.00,,,0.00,Wunderground v.1.15,2013-01-18 14:00:00,
2013-01-18 07:05:00,-1.8,-6.2,30.93,NW,304,0.0,0.0,81,0.00,,,0.00,Wunderground v.1.15,2013-01-18 14:05:00,
2013-01-18 07:10:00,-3.5,-8.1,30.93,NW,304,0.0,0.0,80,0.00,,,0.00,Wunderground v.1.15,2013-01-18 14:10:00,
2013-01-18 07:15:00,-3.9,-8.5,30.94,NW,305,0.0,0.0,80,0.00,,,0.00,Wunderground v.1.15,2013-01-18 14:15:00,
2013-01-18 07:20:00,-3.9,-8.3,30.94,NW,304,0.0,0.0,81,0.00,,,0.00,Wunderground v.1.15,2013-01-18 14:20:00,
2013-01-18 07:25:00,-3.7,-8.1,30.94,NW,305,0.0,0.0,81,0.00,,,0.00,Wunderground v.1.15,2013-01-18 14:25:00,
2013-01-18 07:30:00,-3.4,-7.8,30.94,NW,305,0.0,0.0,81,0.00,,,0.00,Wunderground v.1.15,2013-01-18 14:30:00,
2013-01-18 07:35:00,-3.4,-7.8,30.95,NW,305,0.0,0.0,81,0.00,,,0.00,Wunderground v.1.15,2013-01-18 14:35:00,
2013-01-18 07:40:00,-3.6,-8.0,30.95,NW,304,0.0,0.0,81,0.00,,,0.00,Wunderground v.1.15,2013-01-18 14:40:00,
2013-01-18 07:45:00,-3.7,-8.1,30.95,NW,304,0.0,0.0,81,0.00,,,0.00,Wunderground v.1.15,2013-01-18 14:45:00,
2013-01-18 07:50:00,-4.1,-8.7,30.95,NW,305,0.0,0.0,80,0.00,,,0.00,Wunderground v.1.15,2013-01-18 14:50:00,
2013-01-18 07:55:00,-4.2,-8.8,30.96,NW,305,0.0,0.0,80,0.00,,,0.00,Wunderground v.1.15,2013-01-18 14:55:00,
2013-01-18 08:00:00,-4.1,-8.5,30.96,NW,305,0.0,0.0,81,0.00,,,0.00,Wunderground v.1.15,2013-01-18 15:00:00,
2013-01-18 08:05:00,-4.6,-9.2,30.96,NW,304,0.0,0.0,80,0.00,,,0.00,Wunderground v.1.15,2013-01-18 15:05:00,
2013-01-18 08:10:00,-6.0,-10.8,30.96,NW,305,0.0,0.0,79,0.00,,,0.00,Wunderground v.1.15,2013-01-18 15:10:00,
2013-01-18 08:15:00,-5.4,-10.0,30.97,NW,304,0.0,0.0,80,0.00,,,0.00,Wunderground v.1.15,2013-01-18 15:15:00,
2013-01-18 08:20:00,-4.6,-8.9,30.97,NW,305,0.0,0.0,81,0.00,,,0.00,Wunderground v.1.15,2013-01-18 15:20:00,
2013-01-18 08:25:00,-3.6,-8.0,30.97,NW,305,0.0,0.0,81,0.00,,,0.00,Wunderground v.1.15,2013-01-18 15:25:00,
2013-01-18 08:30:00,-4.2,-8.6,30.98,NW,305,0.0,0.0,81,0.00,,,0.00,Wunderground v.1.15,2013-01-18 15:30:00,
2013-01-18 08:35:00,-4.5,-8.8,30.98,WNW,303,0.0,0.0,81,0.00,,,0.00,Wunderground v.1.15,2013-01-18 15:35:00,
2013-01-18 08:40:00,-4.4,-8.8,30.98,WNW,284,1.0,2.0,81,0.00,,,0.00,Wunderground v.1.15,2013-01-18 15:40:00,
2013-01-18 08:46:00,-3.6,-8.0,30.97,WNW,284,1.0,2.0,81,0.00,,,0.00,Wunderground v.1.15,2013-01-18 15:46:00,
2013-01-18 08:51:00,-2.4,-6.5,30.98,WNW,284,0.0,1.0,82,0.00,,,0.00,Wunderground v.1.15,2013-01-18 15:51:00,
2013-01-18 08:56:00,-1.9,-6.1,30.99,WNW,284,0.0,1.0,82,0.00,,,0.00,Wunderground v.1.15,2013-01-18 15:56:00,
2013-01-18 09:01:00,-2.6,-7.0,30.99,North,360,0.0,1.0,81,0.00,,,0.00,Wunderground v.1.15,2013-01-18 16:01:00,
2013-01-18 09:06:00,-3.2,-7.6,30.99,North,360,0.0,1.0,81,0.00,,,0.00,Wunderground v.1.15,2013-01-18 16:06:00,
2013-01-18 09:11:00,-4.0,-8.6,31.00,NE,53,0.0,1.0,80,0.00,,,0.00,Wunderground v.1.15,2013-01-18 16:11:00,
2013-01-18 09:16:00,-4.5,-9.1,31.00,NE,53,0.0,1.0,80,0.00,,,0.00,Wunderground v.1.15,2013-01-18 16:16:00,
2013-01-18 09:21:00,-4.7,-9.3,31.00,NE,53,0.0,0.0,80,0.00,,,0.00,Wunderground v.1.15,2013-01-18 16:21:00,
2013-01-18 09:26:00,-4.7,-9.3,31.01,NE,53,0.0,0.0,80,0.00,,,0.00,Wunderground v.1.15,2013-01-18 16:26:00,
2013-01-18 09:31:00,-4.4,-9.0,31.00,NE,53,0.0,0.0,80,0.00,,,0.00,Wunderground v.1.15,2013-01-18 16:31:00,
2013-01-18 09:36:00,-3.8,-8.2,31.00,NE,53,0.0,0.0,81,0.00,,,0.00,Wunderground v.1.15,2013-01-18 16:36:00,
2013-01-18 09:41:00,-3.2,-7.6,31.01,NE,53,0.0,0.0,81,0.00,,,0.00,Wunderground v.1.15,2013-01-18 16:41:00,
2013-01-18 09:46:00,-2.7,-7.1,31.01,NE,53,0.0,0.0,81,0.00,,,0.00,Wunderground v.1.15,2013-01-18 16:46:00,
2013-01-18 09:51:00,-1.8,-6.2,31.01,NE,55,0.0,0.0,81,0.00,,,0.00,Wunderground v.1.15,2013-01-18 16:51:00,
2013-01-18 09:56:00,-1.0,-5.4,31.01,NE,55,0.0,0.0,81,0.00,,,0.00,Wunderground v.1.15,2013-01-18 16:56:00,
2013-01-18 10:01:00,-0.7,-4.9,31.01,NE,55,0.0,0.0,82,0.00,,,0.00,Wunderground v.1.15,2013-01-18 17:01:00,
2013-01-18 10:06:00,-1.2,-5.6,31.00,NE,55,0.0,0.0,81,0.00,,,0.00,Wunderground v.1.15,2013-01-18 17:06:00,
2013-01-18 10:11:00,-1.3,-5.7,31.00,NE,55,0.0,0.0,81,0.00,,,0.00,Wunderground v.1.15,2013-01-18 17:11:00,
2013-01-18 10:16:00,-1.2,-5.6,31.01,NE,55,0.0,0.0,81,0.00,,,0.00,Wunderground v.1.15,2013-01-18 17:16:00,
2013-01-18 10:21:00,-1.2,-5.6,31.00,NE,55,0.0,0.0,81,0.00,,,0.00,Wunderground v.1.15,2013-01-18 17:21:00,
2013-01-18 10:26:00,-1.1,-5.5,31.00,NE,55,0.0,0.0,81,0.00,,,0.00,Wunderground v.1.15,2013-01-18 17:26:00,
2013-01-18 10:31:00,-0.7,-5.1,31.00,NE,55,0.0,0.0,81,0.00,,,0.00,Wunderground v.1.15,2013-01-18 17:31:00,
2013-01-18 10:36:00,0.4,-3.8,31.00,NE,55,0.0,0.0,82,0.00,,,0.00,Wunderground v.1.15,2013-01-18 17:36:00,
2013-01-18 10:41:00,1.0,-3.2,31.00,NE,55,0.0,0.0,82,0.00,,,0.00,Wunderground v.1.15,2013-01-18 17:41:00,
2013-01-18 10:46:00,1.3,-2.9,30.99,NE,55,0.0,0.0,82,0.00,,,0.00,Wunderground v.1.15,2013-01-18 17:46:00,
2013-01-18 10:52:00,2.2,-2.0,30.99,NE,55,0.0,0.0,82,0.00,,,0.00,Wunderground v.1.15,2013-01-18 17:52:00,
2013-01-18 10:56:00,3.1,-0.9,30.98,NE,55,0.0,0.0,83,0.00,,,0.00,Wunderground v.1.15,2013-01-18 17:56:00,
2013-01-18 11:01:00,4.3,0.3,30.97,NE,55,0.0,0.0,83,0.00,,,0.00,Wunderground v.1.15,2013-01-18 18:01:00,
2013-01-18 11:07:00,5.3,1.3,30.97,NE,55,0.0,2.0,83,0.00,,,0.00,Wunderground v.1.15,2013-01-18 18:07:00,
2013-01-18 11:12:00,5.6,1.6,30.96,NE,55,0.0,0.0,83,0.00,,,0.00,Wunderground v.1.15,2013-01-18 18:12:00,
2013-01-18 11:17:00,6.1,2.0,30.96,NE,55,0.0,0.0,83,0.00,,,0.00,Wunderground v.1.15,2013-01-18 18:17:00,
2013-01-18 11:22:00,7.0,3.2,30.95,NE,55,0.0,1.0,84,0.00,,,0.00,Wunderground v.1.15,2013-01-18 18:22:00,
2013-01-18 11:27:00,7.4,3.6,30.95,NE,55,0.0,1.0,84,0.00,,,0.00,Wunderground v.1.15,2013-01-18 18:27:00,
2013-01-18 11:32:00,7.2,3.4,30.95,NE,55,0.0,3.0,84,0.00,,,0.00,Wunderground v.1.15,2013-01-18 18:32:00,
2013-01-18 11:37:00,6.2,2.1,30.94,NE,55,0.0,4.0,83,0.00,,,0.00,Wunderground v.1.15,2013-01-18 18:37:00,
2013-01-18 11:42:00,6.1,2.0,30.94,NE,55,0.0,1.0,83,0.00,,,0.00,Wunderground v.1.15,2013-01-18 18:42:00,
2013-01-18 11:47:00,6.4,2.3,30.93,NE,55,0.0,1.0,83,0.00,,,0.00,Wunderground v.1.15,2013-01-18 18:47:00,
2013-01-18 11:52:00,7.1,3.3,30.92,NE,55,0.0,0.0,84,0.00,,,0.00,Wunderground v.1.15,2013-01-18 18:52:00,
2013-01-18 11:57:00,9.5,5.9,30.92,NE,55,0.0,0.0,85,0.00,,,0.00,Wunderground v.1.15,2013-01-18 18:57:00,
2013-01-18 12:02:00,9.8,5.9,30.91,NE,55,0.0,0.0,84,0.00,,,0.00,Wunderground v.1.15,2013-01-18 19:02:00,
2013-01-18 12:07:00,9.9,6.0,30.91,NE,55,1.0,3.0,84,0.00,,,0.00,Wunderground v.1.15,2013-01-18 19:07:00,
2013-01-18 12:12:00,9.9,6.0,30.90,NE,55,0.0,2.0,84,0.00,,,0.00,Wunderground v.1.15,2013-01-18 19:12:00,
2013-01-18 12:17:00,9.9,6.0,30.90,NE,55,3.0,4.0,84,0.00,,,0.00,Wunderground v.1.15,2013-01-18 19:17:00,
2013-01-18 12:22:00,10.4,6.5,30.90,NE,55,2.0,3.0,84,0.00,,,0.00,Wunderground v.1.15,2013-01-18 19:22:00,
2013-01-18 12:27:00,10.5,6.6,30.89,NE,55,0.0,4.0,84,0.00,,,0.00,Wunderground v.1.15,2013-01-18 19:27:00,
2013-01-18 12:32:00,11.3,7.7,30.88,NE,55,0.0,2.0,85,0.00,,,0.00,Wunderground v.1.15,2013-01-18 19:32:00,
2013-01-18 12:37:00,12.4,8.7,30.87,NE,55,0.0,2.0,85,0.00,,,0.00,Wunderground v.1.15,2013-01-18 19:37:00,
2013-01-18 12:42:00,13.7,10.0,30.86,NE,55,0.0,0.0,85,0.00,,,0.00,Wunderground v.1.15,2013-01-18 19:42:00,
2013-01-18 12:47:00,14.9,11.5,30.86,NE,55,0.0,0.0,86,0.00,,,0.00,Wunderground v.1.15,2013-01-18 19:47:00,
2013-01-18 12:52:00,15.5,12.1,30.86,NE,55,0.0,0.0,86,0.00,,,0.00,Wunderground v.1.15,2013-01-18 19:52:00,
2013-01-18 12:57:00,16.0,12.6,30.86,NE,55,0.0,0.0,86,0.00,,,0.00,Wunderground v.1.15,2013-01-18 19:57:00,
2013-01-18 13:02:00,16.2,12.7,30.86,NE,55,0.0,0.0,86,0.00,,,0.00,Wunderground v.1.15,2013-01-18 20:02:00,
2013-01-18 13:07:00,16.6,13.1,30.85,NE,55,0.0,0.0,86,0.00,,,0.00,Wunderground v.1.15,2013-01-18 20:07:00,
2013-01-18 13:12:00,17.4,13.9,30.85,NE,55,0.0,0.0,86,0.00,,,0.00,Wunderground v.1.15,2013-01-18 20:12:00,
2013-01-18 13:17:00,18.0,14.5,30.84,NE,55,0.0,0.0,86,0.00,,,0.00,Wunderground v.1.15,2013-01-18 20:17:00,
2013-01-18 13:22:00,19.7,16.2,30.84,NE,55,0.0,0.0,86,0.00,,,0.00,Wunderground v.1.15,2013-01-18 20:22:00,
2013-01-18 13:27:00,20.1,16.6,30.83,NE,55,0.0,0.0,86,0.00,,,0.00,Wunderground v.1.15,2013-01-18 20:27:00,
2013-01-18 13:32:00,20.1,16.3,30.83,NE,55,0.0,0.0,85,0.00,,,0.00,Wunderground v.1.15,2013-01-18 20:32:00,
2013-01-18 13:37:00,19.7,15.6,30.82,NE,55,0.0,0.0,84,0.00,,,0.00,Wunderground v.1.15,2013-01-18 20:37:00,
2013-01-18 13:42:00,19.7,15.1,30.82,NE,55,0.0,0.0,82,0.00,,,0.00,Wunderground v.1.15,2013-01-18 20:42:00,
2013-01-18 13:47:00,19.7,14.5,30.82,NE,55,0.0,0.0,80,0.00,,,0.00,Wunderground v.1.15,2013-01-18 20:47:00,
2013-01-18 13:53:00,20.2,14.7,30.81,NE,55,0.0,0.0,79,0.00,,,0.00,Wunderground v.1.15,2013-01-18 20:53:00,
2013-01-18 13:58:00,21.2,15.4,30.82,NE,55,0.0,0.0,78,0.00,,,0.00,Wunderground v.1.15,2013-01-18 20:58:00,
2013-01-18 14:03:00,21.8,15.1,30.81,NE,55,0.0,0.0,75,0.00,,,0.00,Wunderground v.1.15,2013-01-18 21:03:00,
2013-01-18 14:08:00,22.9,15.2,30.81,NE,55,0.0,0.0,72,0.00,,,0.00,Wunderground v.1.15,2013-01-18 21:08:00,
2013-01-18 14:13:00,22.2,13.6,30.80,NE,55,0.0,0.0,69,0.00,,,0.00,Wunderground v.1.15,2013-01-18 21:13:00,
2013-01-18 14:18:00,23.2,15.5,30.80,NE,55,0.0,0.0,72,0.00,,,0.00,Wunderground v.1.15,2013-01-18 21:18:00,
2013-01-18 14:23:00,24.8,16.4,30.80,NE,55,0.0,0.0,70,0.00,,,0.00,Wunderground v.1.15,2013-01-18 21:23:00,
2013-01-18 14:28:00,25.8,16.3,30.80,NE,55,0.0,0.0,67,0.00,,,0.00,Wunderground v.1.15,2013-01-18 21:28:00,
2013-01-18 14:33:00,25.4,14.5,30.80,NE,55,0.0,0.0,63,0.00,,,0.00,Wunderground v.1.15,2013-01-18 21:33:00,
2013-01-18 14:38:00,25.1,14.6,30.80,NE,55,0.0,0.0,64,0.00,,,0.00,Wunderground v.1.15,2013-01-18 21:38:00,
2013-01-18 14:43:00,24.8,14.0,30.80,NE,55,0.0,0.0,63,0.00,,,0.00,Wunderground v.1.15,2013-01-18 21:43:00,
2013-01-18 14:48:00,22.3,12.3,30.79,NE,55,0.0,0.0,65,0.00,,,0.00,Wunderground v.1.15,2013-01-18 21:48:00,
2013-01-18 14:53:00,20.5,11.9,30.79,NE,55,0.0,0.0,69,0.00,,,0.00,Wunderground v.1.15,2013-01-18 21:53:00,
2013-01-18 14:58:00,20.1,12.5,30.79,NE,55,0.0,0.0,72,0.00,,,0.00,Wunderground v.1.15,2013-01-18 21:58:00,
2013-01-18 15:03:00,21.8,14.8,30.79,NE,55,0.0,0.0,74,0.00,,,0.00,Wunderground v.1.15,2013-01-18 22:03:00,
2013-01-18 15:08:00,22.9,15.5,30.78,NE,55,0.0,0.0,73,0.00,,,0.00,Wunderground v.1.15,2013-01-18 22:08:00,
2013-01-18 15:13:00,24.9,16.8,30.78,NE,55,0.0,0.0,71,0.00,,,0.00,Wunderground v.1.15,2013-01-18 22:13:00,
2013-01-18 15:18:00,24.2,14.8,30.78,NE,55,0.0,3.0,67,0.00,,,0.00,Wunderground v.1.15,2013-01-18 22:18:00,
2013-01-18 15:23:00,23.3,14.3,30.78,NE,55,0.0,0.0,68,0.00,,,0.00,Wunderground v.1.15,2013-01-18 22:23:00,
2013-01-18 15:28:00,22.9,13.9,30.78,NE,55,0.0,0.0,68,0.00,,,0.00,Wunderground v.1.15,2013-01-18 22:28:00,
2013-01-18 15:33:00,22.6,14.0,30.77,NE,55,0.0,0.0,69,0.00,,,0.00,Wunderground v.1.15,2013-01-18 22:33:00,
2013-01-18 15:38:00,22.3,14.0,30.77,NE,55,0.0,0.0,70,0.00,,,0.00,Wunderground v.1.15,2013-01-18 22:38:00,
2013-01-18 15:43:00,22.4,14.1,30.78,NE,55,0.0,0.0,70,0.00,,,0.00,Wunderground v.1.15,2013-01-18 22:43:00,
2013-01-18 15:48:00,22.1,13.8,30.77,NE,55,0.0,0.0,70,0.00,,,0.00,Wunderground v.1.15,2013-01-18 22:48:00,
2013-01-18 15:53:00,21.8,13.5,30.77,NE,55,0.0,0.0,70,0.00,,,0.00,Wunderground v.1.15,2013-01-18 22:53:00,
2013-01-18 15:58:00,22.3,14.3,30.77,NE,55,0.0,0.0,71,0.00,,,0.00,Wunderground v.1.15,2013-01-18 22:58:00,
2013-01-18 16:03:00,24.0,16.0,30.76,NE,55,0.0,0.0,71,0.00,,,0.00,Wunderground v.1.15,2013-01-18 23:03:00,
2013-01-18 16:08:00,25.2,16.1,30.76,NE,55,0.0,0.0,68,0.00,,,0.00,Wunderground v.1.15,2013-01-18 23:08:00,
2013-01-18 16:13:00,25.3,15.5,30.76,NE,55,0.0,0.0,66,0.00,,,0.00,Wunderground v.1.15,2013-01-18 23:13:00,
2013-01-18 16:18:00,23.6,12.8,30.76,NE,55,0.0,0.0,63,0.00,,,0.00,Wunderground v.1.15,2013-01-18 23:18:00,
2013-01-18 16:23:00,23.5,13.1,30.76,NE,55,0.0,0.0,64,0.00,,,0.00,Wunderground v.1.15,2013-01-18 23:23:00,
2013-01-18 16:29:00,23.4,13.4,30.76,NE,55,0.0,0.0,65,0.00,,,0.00,Wunderground v.1.15,2013-01-18 23:29:00,
2013-01-18 16:46:00,-999.9,-99.9,-32.77,North,32767,-999.0,0.0,255,-99.99,,,0.00,Wunderground v.1.15,2013-01-18 23:46:00,
2013-01-18 16:51:00,-999.9,-99.9,-32.77,North,32767,-999.0,-999.0,255,-99.99,,,0.00,Wunderground v.1.15,2013-01-18 23:51:00,
2013-01-18 16:56:00,-999.9,-99.9,-32.77,North,32767,-999.0,-999.0,255,-99.99,,,0.00,Wunderground v.1.15,2013-01-18 23:56:00,
2013-01-18 17:01:00,-999.9,-99.9,-32.77,North,32767,-999.0,-999.0,255,-99.99,,,0.00,Wunderground v.1.15,2013-01-19 00:01:00,
2013-01-18 17:06:00,-999.9,-99.9,-32.77,North,32767,-999.0,-999.0,255,-99.99,,,0.00,Wunderground v.1.15,2013-01-19 00:06:00,
2013-01-18 17:11:00,-999.9,-99.9,-32.77,North,32767,-999.0,-999.0,255,-99.99,,,0.00,Wunderground v.1.15,2013-01-19 00:11:00,
2013-01-18 17:16:00,-999.9,-99.9,-32.77,North,32767,-999.0,-999.0,255,-99.99,,,0.00,Wunderground v.1.15,2013-01-19 00:16:00,
2013-01-18 17:21:00,-999.9,-99.9,-32.77,North,32767,-999.0,-999.0,255,-99.99,,,0.00,Wunderground v.1.15,2013-01-19 00:21:00,
2013-01-18 17:26:00,-999.9,-99.9,-32.77,North,32767,-999.0,-999.0,255,-99.99,,,0.00,Wunderground v.1.15,2013-01-19 00:26:00,
2013-01-18 17:31:00,-999.9,-99.9,-32.77,North,32767,-999.0,-999.0,255,-99.99,,,0.00,Wunderground v.1.15,2013-01-19 00:31:00,
2013-01-18 17:36:00,-999.9,-99.9,-32.77,North,32767,-999.0,-999.0,255,-99.99,,,0.00,Wunderground v.1.15,2013-01-19 00:36:00,
2013-01-18 17:41:00,-999.9,-99.9,-32.77,North,32767,-999.0,-999.0,255,-99.99,,,0.00,Wunderground v.1.15,2013-01-19 00:41:00,
2013-01-18 17:46:00,-999.9,-99.9,-32.77,North,32767,-999.0,-999.0,255,-99.99,,,0.00,Wunderground v.1.15,2013-01-19 00:46:00,
2013-01-18 17:51:00,-999.9,-99.9,-32.77,North,32767,-999.0,-999.0,255,-99.99,,,0.00,Wunderground v.1.15,2013-01-19 00:51:00,
2013-01-18 17:56:00,-999.9,-99.9,-32.77,North,32767,-999.0,-999.0,255,-99.99,,,0.00,Wunderground v.1.15,2013-01-19 00:56:00,
2013-01-18 18:01:00,-999.9,-99.9,-32.77,North,32767,-999.0,-999.0,255,-99.99,,,0.00,Wunderground v.1.15,2013-01-19 01:01:00,
2013-01-18 18:06:00,-999.9,-99.9,-32.77,North,32767,-999.0,-999.0,255,-99.99,,,0.00,Wunderground v.1.15,2013-01-19 01:06:00,
2013-01-18 18:11:00,-999.9,-99.9,-32.77,North,32767,-999.0,-999.0,255,-99.99,,,0.00,Wunderground v.1.15,2013-01-19 01:11:00,
2013-01-18 18:16:00,-999.9,-99.9,-32.77,North,32767,-999.0,-999.0,255,-99.99,,,0.00,Wunderground v.1.15,2013-01-19 01:16:00,
2013-01-18 18:21:00,-999.9,-99.9,-32.77,North,32767,-999.0,-999.0,255,-99.99,,,0.00,Wunderground v.1.15,2013-01-19 01:21:00,
2013-01-18 18:26:00,-999.9,-99.9,-32.77,North,32767,-999.0,-999.0,255,-99.99,,,0.00,Wunderground v.1.15,2013-01-19 01:26:00,
2013-01-18 18:31:00,-999.9,-99.9,-32.77,North,32767,-999.0,-999.0,255,-99.99,,,0.00,Wunderground v.1.15,2013-01-19 01:31:00,
2013-01-18 18:36:00,-999.9,-99.9,-32.77,North,32767,-999.0,-999.0,255,-99.99,,,0.00,Wunderground v.1.15,2013-01-19 01:36:00,
2013-01-18 18:41:00,-999.9,-99.9,-32.77,North,32767,-999.0,-999.0,255,-99.99,,,0.00,Wunderground v.1.15,2013-01-19 01:41:00,
2013-01-18 18:46:00,-999.9,-99.9,-32.77,North,32767,-999.0,-999.0,255,-99.99,,,0.00,Wunderground v.1.15,2013-01-19 01:46:00,
2013-01-18 18:51:00,-999.9,-99.9,-32.77,North,32767,-999.0,-999.0,255,-99.99,,,0.00,Wunderground v.1.15,2013-01-19 01:51:00,
2013-01-18 18:56:00,-999.9,-99.9,-32.77,North,32767,-999.0,-999.0,255,-99.99,,,0.00,Wunderground v.1.15,2013-01-19 01:56:00,
2013-01-18 19:02:00,-999.9,-99.9,-32.77,North,32767,-999.0,-999.0,255,-99.99,,,0.00,Wunderground v.1.15,2013-01-19 02:02:00,
2013-01-18 19:07:00,-999.9,-99.9,-32.77,North,32767,-999.0,-999.0,255,-99.99,,,0.00,Wunderground v.1.15,2013-01-19 02:07:00,
2013-01-18 19:12:00,-999.9,-99.9,-32.77,North,32767,-999.0,-999.0,255,-99.99,,,0.00,Wunderground v.1.15,2013-01-19 02:12:00,
2013-01-18 19:17:00,-999.9,-99.9,-32.77,North,32767,-999.0,-999.0,255,-99.99,,,0.00,Wunderground v.1.15,2013-01-19 02:17:00,
2013-01-18 19:22:00,-999.9,-99.9,-32.77,North,32767,-999.0,-999.0,255,-99.99,,,0.00,Wunderground v.1.15,2013-01-19 02:22:00,
2013-01-18 19:27:00,-999.9,-99.9,-32.77,North,32767,-999.0,-999.0,255,-99.99,,,0.00,Wunderground v.1.15,2013-01-19 02:27:00,
2013-01-18 19:32:00,-999.9,-99.9,-32.77,North,32767,-999.0,-999.0,255,-99.99,,,0.00,Wunderground v.1.15,2013-01-19 02:32:00,
2013-01-18 19:37:00,-999.9,-99.9,-32.77,North,32767,-999.0,-999.0,255,-99.99,,,0.00,Wunderground v.1.15,2013-01-19 02:37:00,
2013-01-18 19:42:00,-999.9,-99.9,-32.77,North,32767,-999.0,-999.0,255,-99.99,,,0.00,Wunderground v.1.15,2013-01-19 02:42:00,
2013-01-18 19:47:00,-999.9,-99.9,-32.77,North,32767,-999.0,-999.0,255,-99.99,,,0.00,Wunderground v.1.15,2013-01-19 02:47:00,
2013-01-18 19:52:00,-999.9,-99.9,-32.77,North,32767,-999.0,-999.0,255,-99.99,,,0.00,Wunderground v.1.15,2013-01-19 02:52:00,
2013-01-18 19:57:00,-999.9,-99.9,-32.77,North,32767,-999.0,-999.0,255,-99.99,,,0.00,Wunderground v.1.15,2013-01-19 02:57:00,
2013-01-18 20:02:00,-999.9,-99.9,-32.77,North,32767,-999.0,-999.0,255,-99.99,,,0.00,Wunderground v.1.15,2013-01-19 03:02:00,
2013-01-18 20:07:00,-999.9,-99.9,-32.77,North,32767,-999.0,-999.0,255,-99.99,,,0.00,Wunderground v.1.15,2013-01-19 03:07:00,
2013-01-18 20:12:00,-999.9,-99.9,-32.77,North,32767,-999.0,-999.0,255,-99.99,,,0.00,Wunderground v.1.15,2013-01-19 03:12:00,
2013-01-18 20:17:00,-999.9,-99.9,-32.77,North,32767,-999.0,-999.0,255,-99.99,,,0.00,Wunderground v.1.15,2013-01-19 03:17:00,
2013-01-18 20:22:00,-999.9,-99.9,-32.77,North,32767,-999.0,-999.0,255,-99.99,,,0.00,Wunderground v.1.15,2013-01-19 03:22:00,
2013-01-18 20:27:00,-999.9,-99.9,-32.77,North,32767,-999.0,-999.0,255,-99.99,,,0.00,Wunderground v.1.15,2013-01-19 03:27:00,
2013-01-18 20:32:00,-999.9,-99.9,-32.77,North,32767,-999.0,-999.0,255,-99.99,,,0.00,Wunderground v.1.15,2013-01-19 03:32:00,
2013-01-18 20:37:00,-999.9,-99.9,-32.77,North,32767,-999.0,-999.0,255,-99.99,,,0.00,Wunderground v.1.15,2013-01-19 03:37:00,
2013-01-18 20:42:00,-999.9,-99.9,-32.77,North,32767,-999.0,-999.0,255,-99.99,,,0.00,Wunderground v.1.15,2013-01-19 03:42:00,
2013-01-18 20:47:00,-999.9,-99.9,-32.77,North,32767,-999.0,-999.0,255,-99.99,,,0.00,Wunderground v.1.15,2013-01-19 03:47:00,
2013-01-18 20:52:00,-999.9,-99.9,-32.77,North,32767,-999.0,-999.0,255,-99.99,,,0.00,Wunderground v.1.15,2013-01-19 03:52:00,
2013-01-18 20:57:00,-999.9,-99.9,-32.77,North,32767,-999.0,-999.0,255,-99.99,,,0.00,Wunderground v.1.15,2013-01-19 03:57:00,
2013-01-18 21:02:00,-999.9,-99.9,-32.77,North,32767,-999.0,-999.0,255,-99.99,,,0.00,Wunderground v.1.15,2013-01-19 04:02:00,
2013-01-18 21:07:00,-999.9,-99.9,-32.77,North,32767,-999.0,-999.0,255,-99.99,,,0.00,Wunderground v.1.15,2013-01-19 04:07:00,
2013-01-18 21:13:00,-999.9,-99.9,-32.77,North,32767,-999.0,-999.0,255,-99.99,,,0.00,Wunderground v.1.15,2013-01-19 04:13:00,
2013-01-18 21:18:00,-999.9,-99.9,-32.77,North,32767,-999.0,-999.0,255,-99.99,,,0.00,Wunderground v.1.15,2013-01-19 04:18:00,
2013-01-18 21:23:00,-999.9,-99.9,-32.77,North,32767,-999.0,-999.0,255,-99.99,,,0.00,Wunderground v.1.15,2013-01-19 04:23:00,
2013-01-18 21:28:00,-999.9,-99.9,-32.77,North,32767,-999.0,-999.0,255,-99.99,,,0.00,Wunderground v.1.15,2013-01-19 04:28:00,
2013-01-18 21:33:00,-999.9,-99.9,-32.77,North,32767,-999.0,-999.0,255,-99.99,,,0.00,Wunderground v.1.15,2013-01-19 04:33:00,
2013-01-18 21:38:00,-999.9,-99.9,-32.77,North,32767,-999.0,-999.0,255,-99.99,,,0.00,Wunderground v.1.15,2013-01-19 04:38:00,
2013-01-18 21:43:00,-999.9,-99.9,-32.77,North,32767,-999.0,-999.0,255,-99.99,,,0.00,Wunderground v.1.15,2013-01-19 04:43:00,
2013-01-18 21:47:00,-999.9,-99.9,-32.77,North,32767,-999.0,-999.0,255,-99.99,,,0.00,Wunderground v.1.15,2013-01-19 04:47:00,
2013-01-18 21:52:00,-999.9,-99.9,-32.77,North,32767,-999.0,-999.0,255,-99.99,,,0.00,Wunderground v.1.15,2013-01-19 04:52:00,
2013-01-18 21:58:00,-999.9,-99.9,-32.77,North,32767,-999.0,-999.0,255,-99.99,,,0.00,Wunderground v.1.15,2013-01-19 04:58:00,
2013-01-18 22:00:00,-999.9,-99.9,-32.77,North,32767,-999.0,-999.0,255,-99.99,,,0.00,Wunderground v.1.15,2013-01-19 05:00:00,
2013-01-18 22:01:00,-999.9,-99.9,-32.77,North,32767,-999.0,-999.0,255,-99.99,,,0.00,Wunderground v.1.15,2013-01-19 05:01:00,
2013-01-18 22:03:00,-999.9,-99.9,-32.77,North,32767,-999.0,-999.0,255,-99.99,,,0.00,Wunderground v.1.15,2013-01-19 05:03:00,
2013-01-18 22:09:00,-999.9,-99.9,-32.77,North,32767,-999.0,-999.0,255,-99.99,,,0.00,Wunderground v.1.15,2013-01-19 05:09:00,
2013-01-18 22:14:00,-999.9,-99.9,-32.77,North,32767,-999.0,-999.0,255,-99.99,,,0.00,Wunderground v.1.15,2013-01-19 05:14:00,
2013-01-18 22:19:00,-999.9,-99.9,-32.77,North,32767,-999.0,-999.0,255,-99.99,,,0.00,Wunderground v.1.15,2013-01-19 05:19:00,
2013-01-18 22:24:00,-999.9,-99.9,-32.77,North,32767,-999.0,-999.0,255,-99.99,,,0.00,Wunderground v.1.15,2013-01-19 05:24:00,
2013-01-18 22:29:00,-999.9,-99.9,-32.77,North,32767,-999.0,-999.0,255,-99.99,,,0.00,Wunderground v.1.15,2013-01-19 05:29:00,
2013-01-18 22:34:00,-999.9,-99.9,-32.77,North,32767,-999.0,-999.0,255,-99.99,,,0.00,Wunderground v.1.15,2013-01-19 05:34:00,
2013-01-18 22:39:00,-999.9,-99.9,-32.77,North,32767,-999.0,-999.0,255,-99.99,,,0.00,Wunderground v.1.15,2013-01-19 05:39:00,
2013-01-18 22:44:00,-999.9,-99.9,-32.77,North,32767,-999.0,-999.0,255,-99.99,,,0.00,Wunderground v.1.15,2013-01-19 05:44:00,
2013-01-18 22:49:00,-999.9,-99.9,-32.77,North,32767,-999.0,-999.0,255,-99.99,,,0.00,Wunderground v.1.15,2013-01-19 05:49:00,
2013-01-18 22:54:00,-999.9,-99.9,-32.77,North,32767,-999.0,-999.0,255,-99.99,,,0.00,Wunderground v.1.15,2013-01-19 05:54:00,
2013-01-18 22:59:00,-999.9,-99.9,-32.77,North,32767,-999.0,-999.0,255,-99.99,,,0.00,Wunderground v.1.15,2013-01-19 05:59:00,
2013-01-18 23:04:00,-999.9,-99.9,-32.77,North,32767,-999.0,-999.0,255,-99.99,,,0.00,Wunderground v.1.15,2013-01-19 06:04:00,
2013-01-18 23:09:00,-999.9,-99.9,-32.77,North,32767,-999.0,-999.0,255,-99.99,,,0.00,Wunderground v.1.15,2013-01-19 06:09:00,
2013-01-18 23:14:00,-999.9,-99.9,-32.77,North,32767,-999.0,-999.0,255,-99.99,,,0.00,Wunderground v.1.15,2013-01-19 06:14:00,
2013-01-18 23:19:00,-999.9,-99.9,-32.77,North,32767,-999.0,-999.0,255,-99.99,,,0.00,Wunderground v.1.15,2013-01-19 06:19:00,
2013-01-18 23:24:00,-999.9,-99.9,-32.77,North,32767,-999.0,-999.0,255,-99.99,,,0.00,Wunderground v.1.15,2013-01-19 06:24:00,
2013-01-18 23:29:00,-999.9,-99.9,-32.77,North,32767,-999.0,-999.0,255,-99.99,,,0.00,Wunderground v.1.15,2013-01-19 06:29:00,
2013-01-18 23:34:00,-999.9,-99.9,-32.77,North,32767,-999.0,-999.0,255,-99.99,,,0.00,Wunderground v.1.15,2013-01-19 06:34:00,
2013-01-18 23:39:00,-999.9,-99.9,-32.77,North,32767,-999.0,-999.0,255,-99.99,,,0.00,Wunderground v.1.15,2013-01-19 06:39:00,
2013-01-18 23:44:00,-999.9,-99.9,-32.77,North,32767,-999.0,-999.0,255,-99.99,,,0.00,Wunderground v.1.15,2013-01-19 06:44:00,
2013-01-18 23:49:00,-999.9,-99.9,-32.77,North,32767,-999.0,-999.0,255,-99.99,,,0.00,Wunderground v.1.15,2013-01-19 06:49:00,
2013-01-18 23:54:00,-999.9,-99.9,-32.77,North,32767,-999.0,-999.0,255,-99.99,,,0.00,Wunderground v.1.15,2013-01-19 06:54:00,